Flag for Germany Weather past 2 weeks in Neuburg an der Donau, Bavaria, Germany

Now
50 °F

Cool.


Feels Like: 47 °F
Forecast: 44 / 49 °F
Wind: 8 mph from Southwest

Location: Neuburg / Donau

Current Time: Dec 18, 2014 at 7:08:49 PM

Latest Report: Dec 18, 2014 at 6:20 PM


Visibility: N/A

Pressure: 30.04 "Hg

Humidity: 94%

Dew point: 48 °F

Location of Neuburg an der DonauLocation

Historic Weather in Neuburg an der Donau — Graph

°F

Neuburg an der Donau temperature yesterday

Maximum temperature yesterday: 43 °F (at 2:20 PM)
Minimum temperature yesterday: 32 °F (at 7:20 AM)
Average temperature yesterday: 38 °F

Past Weeks' High & Low Weather Summary

 TemperatureHumidityPressure
High50 °F (Dec 14, 12:20 PM)100% (Dec 5, 5:20 PM)30.45 "Hg (Dec 5, 5:20 PM)
Low28 °F (Dec 9, 2:20 AM)54% (Dec 12, 4:20 PM)29.74 "Hg (Dec 12, 8:20 PM)
Average39 °F90%30.03 "Hg
* Reported Dec 3 5:20 PM — Dec 18 5:20 PM, Neuburg an der Donau, Weather by CustomWeather, © 2014

Note: Actual official high and low records may vary slightly from our data, if they occured in-between our weather recording intervals... More about our weather records

Advertising

Neuburg an der Donau weather history for previous 24 hours

 ConditionsComfort  
Time TempWeatherWind HumidityBarometerVisibility
5:20 PM
Dec 18
48 °FPassing clouds.8 mph94%30.01 "Hg3 mi
4:47 PM48 °FPassing clouds.7 mph94%30.01 "Hg2 mi
4:20 PM48 °FPassing clouds.8 mph94%30.01 "Hg2 mi
3:20 PM50 °FDrizzle. Partly sunny.9 mph88%30.01 "HgN/A
2:20 PM48 °FDrizzle. Broken clouds.8 mph94%29.98 "HgN/A
1:20 PM48 °FDrizzle. Broken clouds.7 mph94%30.01 "Hg4 mi
12:20 PM48 °FDrizzle. Partly sunny.6 mph94%30.01 "Hg6 mi
11:20 AM46 °FDrizzle. Partly sunny.7 mph93%30.01 "Hg3 mi
10:20 AM46 °FBroken clouds.7 mph87%30.04 "HgN/A
9:20 AM45 °FPartly sunny.5 mph93%30.01 "HgN/A
8:20 AM45 °FPartly sunny.5 mph87%30.04 "HgN/A
7:20 AM45 °FPartly cloudy.7 mph87%30.01 "HgN/A
6:20 AM45 °FPassing clouds.8 mph87%30.01 "HgN/A
5:20 AM45 °FQuite cool.8 mph87%29.98 "HgN/A
4:20 AM43 °FQuite cool.8 mph93%29.98 "HgN/A
3:20 AM43 °FQuite cool.7 mph93%29.98 "HgN/A
2:20 AM43 °FQuite cool.8 mph93%29.98 "HgN/A
1:20 AM41 °FQuite cool.7 mph100%29.95 "HgN/A
12:20 AM41 °FQuite cool.6 mph100%29.95 "HgN/A
11:20 PM
Dec 17
41 °FQuite cool.8 mph93%29.92 "HgN/A
10:20 PM41 °FQuite cool.12 mph93%29.89 "HgN/A
9:20 PM39 °FChilly.9 mph100%29.86 "HgN/A
8:20 PM39 °FChilly.10 mph93%29.86 "HgN/A
7:20 PM39 °FChilly.10 mph93%29.83 "HgN/A
Weather by CustomWeather, © 2014

See weather overviewHow to use our weather pages